Home   Weather   Erie   Past weeks

Flag for USA Past Weather in Erie, Pennsylvania, USA — Yesterday and Last 2 Weeks

Now
58 °F

Sunny.


Feels Like: 57 °F
Forecast: 36 / 55 °F
Wind: 7 mph from North

Location: Erie International Airport

Current Time: Apr 23, 2017 at 6:01:40 pm

Latest Report: Apr 23, 2017 at 4:51 pm


Visibility: 10 mi

Pressure: 30.07 "Hg

Humidity: 36%

Dew Point: 31 °F

Location of ErieLocation

Past Weather in Erie — Graph

°F

Erie Temperature Yesterday

Maximum temperature yesterday: 48 °F (at 3:51 pm)
Minimum temperature yesterday: 39 °F (at 11:51 pm)
Average temperature yesterday: 44 °F

High & Low Weather Summary for the Past Weeks

 TemperatureHumidityPressure
High79 °F (Apr 10, 5:51 pm)100% (Apr 19, 10:08 pm)30.52 "Hg (Apr 19, 10:08 pm)
Low34 °F (Apr 23, 5:51 am)22% (Apr 9, 2:51 pm)29.78 "Hg (Apr 20, 11:51 pm)
Average54 °F67%30.10 "Hg
* Reported Apr 8 4:51 pm — Apr 23 4:51 pm, Erie, Weather by CustomWeather, © 2017

Note: Actual official high and low records may vary slightly from our data, if they occured in-between our weather recording intervals... More about our weather records

Advertising

Erie Weather History for the Previous 24 Hours

Scroll right to see more
 ConditionsComfort  
Time TempWeatherWind HumidityBarometerVisibility
4:51 pm
Sun, Apr 23
58 °FSunny.7 mph36%30.07 "Hg10 mi
3:51 pm56 °FSunny.6 mph44%30.09 "Hg10 mi
2:51 pm56 °FSunny.8 mph46%30.09 "Hg10 mi
1:51 pm54 °FSunny.7 mph57%30.11 "Hg10 mi
12:51 pm53 °FSunny.6 mph61%30.12 "Hg10 mi
11:51 am56 °FSunny.9 mph53%30.13 "Hg10 mi
10:51 am57 °FSunny.6 mph41%30.13 "Hg10 mi
9:51 am53 °FSunny.6 mph55%30.15 "Hg10 mi
8:51 am49 °FSunny.6 mph66%30.16 "Hg10 mi
7:51 am40 °FSunny.5 mph80%30.16 "Hg10 mi
6:51 am35 °FSunny.5 mph85%30.14 "Hg10 mi
5:51 am34 °FClear.3 mph88%30.11 "Hg10 mi
4:51 am35 °FClear.3 mph88%30.11 "Hg10 mi
3:51 am35 °FClear.No wind88%30.12 "Hg10 mi
2:51 am35 °FClear.3 mph88%30.13 "Hg10 mi
1:51 am36 °FClear.3 mph89%30.14 "Hg10 mi
12:51 am38 °FClear.No wind90%30.14 "Hg10 mi
11:51 pm
Sat, Apr 22
39 °FClear.3 mph86%30.14 "Hg10 mi
10:51 pm40 °FClear.No wind83%30.13 "Hg10 mi
9:51 pm41 °FClear.3 mph82%30.13 "Hg10 mi
8:51 pm43 °FClear.No wind76%30.12 "Hg10 mi
7:51 pm46 °FSunny.3 mph66%30.10 "Hg10 mi
6:51 pm46 °FSunny.5 mph68%30.11 "Hg10 mi
Weather by CustomWeather, © 2017

See weather overviewHow to use our weather pages